Cando, ND

1:18 PM CDT on August 29, 2016 (GMT -0500)
Cando

Weather History for K9D7 - May, 2013

Change the Weather History Date:

Monday, May 20, 2013

  Actual Average (KDVL) Record (KDVL)
Temperature  
Mean Temperature 50 °F -  
Max Temperature 53 °F 67 °F 91 °F (1992)
Min Temperature 44 °F 45 °F 28 °F (1959)
Degree Days  
Heating Degree Days 16    
Moisture  
Dew Point 50 °F    
Average Humidity 100    
Maximum Humidity 100    
Minimum Humidity 100    
Precipitation  
Precipitation 0.51 in - - ()
Sea Level Pressure  
Sea Level Pressure 29.71 in    
Wind  
Wind Speed 23 mph (NE)    
Max Wind Speed 33 mph    
Max Gust Speed 46 mph    
Visibility 6 miles    
Events Rain    
Averages and records for this station are not official NWS values.
T = Trace of Precipitation, MM = Missing Value Source: NWS Daily Summary

Daily Weather History Graph

Daily Weather History Graph

Search for Another Location

Airport or City:

Trip Planner

Search our weather history database for the weather conditions in past years. The results will help you decide how hot, cold, wet, or windy it might be!

Date:

Astronomy

May. 20, 2013 Rise Set
Actual Time 5:50 AM CDT 9:17 PM CDT
Civil Twilight 5:11 AM CDT 9:56 PM CDT
Nautical Twilight 4:20 AM CDT 10:47 PM CDT
Astronomical Twilight 3:12 AM CDT 11:57 PM CDT
Moon 4:05 PM CDT (5/20) 3:10 AM CDT (5/20)
Length of Visible Light 16h 44m
Length of Day
15h 27m
Waxing Gibbous, 75% of the Moon is Illuminated
May 20
Waxing Gibbous
May 24
Full
May 31
Last Quarter
Jun 8
New
Jun 16
First Quarter

Hourly Weather History & Observations

Time (CDT) Temp. Windchill Dew Point Humidity Pressure Visibility Wind Dir Wind Speed Gust Speed Precip Events Conditions
12:15 AM 51.8 °F - 51.8 °F 100% 29.71 in 10.0 mi ENE 18.4 mph 26.5 mph N/A   Overcast
12:35 AM 51.8 °F - 51.8 °F 100% 29.71 in 10.0 mi ENE 18.4 mph 32.2 mph N/A   Overcast
12:55 AM 51.8 °F - 51.8 °F 100% 29.70 in 10.0 mi NE 19.6 mph 28.8 mph 0.01 in Rain Light Rain
1:15 AM 51.8 °F - 51.8 °F 100% 29.70 in 10.0 mi NE 20.7 mph 28.8 mph N/A   Overcast
1:35 AM 51.8 °F - 51.8 °F 100% 29.70 in 10.0 mi ENE 20.7 mph 26.5 mph N/A   Overcast
1:55 AM 51.8 °F - 51.8 °F 100% 29.70 in 10.0 mi ENE 20.7 mph 26.5 mph N/A   Overcast
2:15 AM 51.8 °F - 51.8 °F 100% 29.70 in 10.0 mi ENE 20.7 mph 24.2 mph N/A   Overcast
2:35 AM 51.8 °F - 51.8 °F 100% 29.70 in 5.0 mi ENE 17.3 mph 27.6 mph N/A   Overcast
3:15 AM 51.8 °F - 51.8 °F 100% 29.69 in 9.0 mi ENE 18.4 mph 24.2 mph N/A Rain Light Rain
3:35 AM 51.8 °F - 51.8 °F 100% 29.69 in 8.0 mi ENE 20.7 mph 25.3 mph N/A Rain Light Rain
3:55 AM 51.8 °F - 51.8 °F 100% 29.69 in 9.0 mi NE 20.7 mph 31.1 mph 0.01 in Rain Light Rain
4:35 AM 51.8 °F - 51.8 °F 100% 29.69 in 7.0 mi NE 21.9 mph 25.3 mph N/A Rain Light Rain
4:55 AM 50.0 °F - 50.0 °F 100% 29.70 in 3.0 mi NE 19.6 mph 27.6 mph N/A   Overcast
5:15 AM 50.0 °F - 50.0 °F 100% 29.70 in 4.0 mi NE 21.9 mph 29.9 mph 0.04 in Rain Rain
5:35 AM 50.0 °F - 50.0 °F 100% 29.70 in 4.0 mi NE 21.9 mph 27.6 mph 0.09 in Rain Rain
5:55 AM 50.0 °F - 50.0 °F 100% 29.70 in 7.0 mi NE 21.9 mph 29.9 mph 0.10 in Rain Light Rain
6:15 AM 50.0 °F - 50.0 °F 100% 29.70 in 6.0 mi NE 24.2 mph 32.2 mph N/A Rain Light Rain
6:35 AM 50.0 °F - 50.0 °F 100% 29.70 in 5.0 mi NE 19.6 mph 31.1 mph 0.01 in Rain Light Rain
7:15 AM 50.0 °F - 50.0 °F 100% 29.69 in 4.0 mi NE 23.0 mph 33.4 mph N/A Rain Light Rain
7:35 AM 50.0 °F - 50.0 °F 100% 29.69 in 2.5 mi NE 20.7 mph 31.1 mph 0.04 in Rain Rain
7:55 AM 50.0 °F - 50.0 °F 100% 29.69 in 5.0 mi NE 25.3 mph 33.4 mph 0.07 in Rain Light Rain
8:15 AM 50.0 °F - 50.0 °F 100% 29.69 in 4.0 mi NE 25.3 mph 38.0 mph N/A Rain Light Rain
8:35 AM 50.0 °F - 50.0 °F 100% 29.68 in 3.0 mi NE 24.2 mph 35.7 mph 0.04 in Rain Rain
9:15 AM 50.0 °F - 50.0 °F 100% 29.68 in 2.5 mi NE 24.2 mph 38.0 mph 0.03 in Rain Rain
9:35 AM 50.0 °F - 50.0 °F 100% 29.68 in 2.0 mi NE 27.6 mph 38.0 mph 0.07 in Rain Rain
9:55 AM 50.0 °F - 50.0 °F 100% 29.67 in 3.0 mi NE 26.5 mph 36.8 mph 0.10 in Rain Rain
10:35 AM 50.0 °F - 50.0 °F 100% 29.67 in 3.0 mi NE 27.6 mph 36.8 mph 0.04 in   Mostly Cloudy
10:55 AM 50.0 °F - 50.0 °F 100% 29.67 in 2.5 mi NE 27.6 mph 36.8 mph 0.06 in Rain Rain
11:15 AM 50.0 °F - 50.0 °F 100% 29.67 in 4.0 mi NE 27.6 mph 35.7 mph N/A Rain Light Rain
11:35 AM 50.0 °F - 50.0 °F 100% 29.68 in 8.0 mi NE 27.6 mph 35.7 mph 0.02 in   Mostly Cloudy
11:55 AM 51.8 °F - 51.8 °F 100% 29.67 in 10.0 mi NE 24.2 mph 34.5 mph 0.02 in   Mostly Cloudy
12:15 PM 51.8 °F - 51.8 °F 100% 29.67 in 3.0 mi NE 26.5 mph 38.0 mph N/A Rain Light Rain
12:35 PM 50.0 °F - 50.0 °F 100% 29.68 in 3.0 mi NE 28.8 mph 39.1 mph N/A   Partly Cloudy
12:55 PM 51.8 °F - 51.8 °F 100% 29.68 in 5.0 mi NE 26.5 mph 43.7 mph 0.02 in Rain Light Rain
1:15 PM 51.8 °F - 51.8 °F 100% 29.68 in 5.0 mi NE 27.6 mph 42.6 mph N/A Rain Light Rain
1:55 PM 51.8 °F - 51.8 °F 100% 29.69 in 5.0 mi NE 27.6 mph 36.8 mph 0.02 in Rain Light Rain
2:15 PM 51.8 °F - 51.8 °F 100% 29.69 in 5.0 mi NE 24.2 mph 42.6 mph N/A Rain Light Rain
2:35 PM 51.8 °F - 51.8 °F 100% 29.69 in 9.0 mi NE 29.9 mph 38.0 mph N/A   Scattered Clouds
2:55 PM 51.8 °F - 51.8 °F 100% 29.70 in 5.0 mi NE 27.6 mph 35.7 mph N/A Rain Light Rain
3:15 PM 51.8 °F - 51.8 °F 100% 29.70 in 3.0 mi NE 29.9 mph 39.1 mph N/A Rain Light Rain
3:35 PM 53.6 °F - 53.6 °F 100% 29.70 in 9.0 mi NE 31.1 mph 43.7 mph N/A   Scattered Clouds
3:55 PM 53.6 °F - 53.6 °F 100% 29.70 in 10.0 mi NE 28.8 mph 39.1 mph N/A   Mostly Cloudy
4:15 PM 53.6 °F - 53.6 °F 100% 29.70 in 10.0 mi NE 28.8 mph 46.0 mph N/A   Mostly Cloudy
4:35 PM 53.6 °F - 53.6 °F 100% 29.71 in 10.0 mi NE 33.4 mph 41.4 mph N/A   Mostly Cloudy
4:55 PM 51.8 °F - 51.8 °F 100% 29.71 in 10.0 mi NE 27.6 mph 39.1 mph N/A Rain Light Rain
5:15 PM 51.8 °F - 51.8 °F 100% 29.72 in 9.0 mi NE 26.5 mph 36.8 mph N/A Rain Light Rain
5:35 PM 51.8 °F - 51.8 °F 100% 29.72 in 8.0 mi NE 25.3 mph 40.3 mph N/A Rain Light Rain
5:55 PM 50.0 °F - 50.0 °F 100% 29.72 in 7.0 mi NE 32.2 mph 44.9 mph 0.01 in Rain Light Rain
6:15 PM 50.0 °F - 50.0 °F 100% 29.73 in 5.0 mi NE 27.6 mph 42.6 mph N/A Rain Light Rain
6:35 PM 50.0 °F - 50.0 °F 100% 29.73 in 5.0 mi NE 29.9 mph 40.3 mph 0.01 in Rain Light Rain
6:55 PM 50.0 °F - 50.0 °F 100% 29.73 in 4.0 mi NE 25.3 mph 41.4 mph 0.02 in Rain Light Rain
7:15 PM 50.0 °F - 50.0 °F 100% 29.74 in 5.0 mi NE 27.6 mph 40.3 mph N/A   Scattered Clouds
7:35 PM 50.0 °F - 50.0 °F 100% 29.74 in 5.0 mi NNE 29.9 mph 42.6 mph 0.01 in Rain Light Rain
7:55 PM 48.2 °F - 48.2 °F 100% 29.75 in 9.0 mi NE 31.1 mph 38.0 mph 0.01 in Rain Light Rain
8:15 PM 48.2 °F - 48.2 °F 100% 29.75 in 6.0 mi NE 29.9 mph 36.8 mph N/A Rain Light Rain
8:35 PM 48.2 °F - 48.2 °F 100% 29.75 in 3.0 mi NNE 23.0 mph 40.3 mph 0.01 in Rain Light Rain
9:15 PM 48.2 °F - 48.2 °F 100% 29.76 in 3.0 mi NNE 28.8 mph 42.6 mph N/A Rain Light Rain
9:35 PM 48.2 °F - 48.2 °F 100% 29.77 in 5.0 mi NNE 26.5 mph 38.0 mph N/A Rain Light Rain
9:55 PM 46.4 °F 37.7 °F 46.4 °F 100% 29.78 in 6.0 mi NNE 26.5 mph 42.6 mph N/A   Overcast
10:15 PM 46.4 °F 37.0 °F 46.4 °F 100% 29.78 in 9.0 mi NNE 31.1 mph 40.3 mph N/A   Overcast
10:35 PM 46.4 °F 37.7 °F 46.4 °F 100% 29.78 in 9.0 mi NE 26.5 mph 40.3 mph N/A   Overcast
10:55 PM 46.4 °F 37.7 °F 46.4 °F 100% 29.78 in 10.0 mi NNE 26.5 mph 41.4 mph N/A   Overcast
11:15 PM 46.4 °F 37.5 °F 46.4 °F 100% 29.78 in 10.0 mi NE 27.6 mph 40.3 mph N/A   Overcast
11:35 PM 46.4 °F 37.2 °F 46.4 °F 100% 29.79 in 10.0 mi NNE 29.9 mph 40.3 mph N/A   Overcast
11:55 PM 44.6 °F 34.9 °F 44.6 °F 100% 29.79 in 10.0 mi NE 28.8 mph 40.3 mph N/A   Overcast